Location: Del Amo
(33.8464°N, 118.2104°W)
Time: 15:49:57
(UTC+00:00)

POLYITAN 1 - Visible Passes

Search period start: 04 October 2024 00:00
Search period end: 14 October 2024 00:00
Orbit: 536 x 557 km, 98.1° (Epoch: 03 October)

Date Brightness Start Highest point End Pass type
(mag) Time Alt. Az. Time Alt. Az. Time Alt. Az.
04 Oct ? 11:13:07 10° NE 11:14:19 17° NE 11:14:19 17° NE visible
04 Oct ? 12:48:40 10° NNW 12:49:56 14° NW 12:49:56 14° NW visible
05 Oct ? 11:07:47 10° NE 11:08:39 15° NE 11:08:39 15° NE visible
05 Oct ? 12:42:51 10° NNW 12:44:17 15° NW 12:44:17 15° NW visible
06 Oct ? 11:02:26 10° NE 11:02:56 12° NE 11:02:56 12° NE visible
06 Oct ? 12:37:02 10° NNW 12:38:33 17° NW 12:38:33 17° NW visible
07 Oct ? 10:57:04 10° NE 10:57:08 10° NE 10:57:08 10° NE visible
07 Oct ? 12:31:11 10° NNW 12:32:44 18° NW 12:32:44 18° NW visible
08 Oct ? 12:25:18 10° NNW 12:26:52 20° NNW 12:26:52 20° NNW visible
09 Oct ? 12:19:24 10° N 12:20:55 20° NNW 12:20:55 20° NNW visible
10 Oct ? 12:13:27 10° N 12:14:54 21° NNW 12:14:54 21° NNW visible
11 Oct ? 12:07:27 10° N 12:08:48 20° N 12:08:48 20° N visible
12 Oct ? 12:01:24 10° N 12:02:38 19° N 12:02:38 19° N visible
13 Oct ? 11:55:19 10° N 11:56:24 18° N 11:56:24 18° N visible
